Location: Eschentzwiller
(47.7125°N, 7.3981°E)
Time: 03:01:11
(UTC+00:00)

Cosmos 2219 - Pass Details

Date: 27 October 2020
Orbit: 832 x 862 km, 71.1° (Epoch: 01 December)

Event Time Altitude Azimuth Distance (km) Brightness Sun altitude
Rises 16:46:33 0° 335° (NNW) 3,445 6.5 -5.1°
Reaches altitude 10° 16:49:09 10° 342° (NNW) 2,507 5.7 -5.5°
Maximum altitude 16:54:40 44° 55° (NE) 1,174 3.6 -6.4°
Drops below altitude 10° 17:00:08 10° 127° (SE) 2,496 5.3 -7.3°
Sets 17:02:42 0° 133° (SE) 3,428 6.0 -7.7°
